Regional Weather Roundup
Issued by NWS

Home | Current Version | Previous Version | Text Only | Print | Product List | Glossary Off
Versions: 1 2 3 4 5 6 7 8 9 10 11 12 13 14 15 16 17 18 19 20 21 22 23 24 25 26 27 28 29 30 31 32 33 34 35 36 37 38 39 40 41 42 43 44 45 46 47 48 49 50

000
ASUS43 KMPX 301810
RWRMN
WEATHER ROUNDUP FOR MINNESOTA
NATIONAL WEATHER SERVICE TWIN CITIES/CHANHASSEN MN
100 PM CDT WED JUL 30 2014


NOTE: "FAIR" INDICATES FEW OR NO CLOUDS BELOW 12,000 FEET WITH NO
SIGNIFICANT WEATHER AND/OR OBSTRUCTIONS TO VISIBILITY. N/A MEANS
CURRENT SKY AND/OR WEATHER CONDITIONS ARE NOT AVAILABLE.

MNZ060>063-068>070-301900-
   Twin Cities Metro

CITY           SKY/WX    TMP DP  RH WIND       PRES   REMARKS
TWIN CITIES    FAIR      80  57  45 W10G17    30.07F
6HR MIN TEMP:  62; 6HR MAX TEMP:  80;

ST PAUL        FAIR      78  58  49 N7        30.07F
CRYSTAL        FAIR      79  58  48 W9        30.06F
BLAINE         MOSUNNY   79  59  50 W12       30.08F
LAKEVILLE      FAIR      75  59  57 NW8       30.08F
EDEN PRAIRIE   FAIR      79  60  52 N6        30.07F
6HR MIN TEMP:  62; 6HR MAX TEMP:  79;

SOUTH ST PAUL  FAIR      77  56  47 NW9       30.07F
LAKE ELMO      FAIR      75  61  60 NW8       30.08F
$$
MNZ001>005-007-008-013>017-022>024-027-028-301900-
   Northwest Minnesota

CITY           SKY/WX    TMP DP  RH WIND       PRES   REMARKS
BEMIDJI        FAIR      75  56  50 NW14      30.09F
HALLOCK        FAIR      77  54  44 NW7       30.08F
ROSEAU         FAIR      77  61  57 NW9G17    30.07F
WARROAD        FAIR      75  59  57 NW13G18   30.07F
THIEF RVR FALL FAIR      73  55  53 NW12      30.10F
CROOKSTON      FAIR      75  57  53 NW6       30.10F
FOSSTON        FAIR      73  57  56 NW8       30.11F
DETROIT LAKES  FAIR      73  54  49 NW12G17   30.13F
MOORHEAD       FAIR      77  55  47 N5        30.12F
PARK RAPIDS    FAIR      77  52  41 NW14      30.10F
$$
MNZ006-009>011-018-025>026-301900-
   North Central Minnesota

CITY           SKY/WX    TMP DP  RH WIND       PRES   REMARKS
BAUDETTE       FAIR      77  58  51 NW12G20   30.06F
FLAG ISLAND    FAIR      73  55  53 NW12      30.03F
INTL FALLS     FAIR      76  58  53 NW15G21   30.02F
6HR MIN TEMP:  52; 6HR MAX TEMP:  76;

WASKISH        FAIR      77  59  53 NW10      30.06F
BIG FORK       FAIR     N/A N/A N/A W5        30.05F
LONGVILLE      FAIR      73  57  56 NW6       30.08F
GRAND RAPIDS   FAIR      75  55  50 NW13G21   30.06F
CRANE LAKE     FAIR      73  61  64 NW7       30.02S
ORR            FAIR      75  59  57 NW9       30.00F
COOK           FAIR      73  59  60 NW10      30.03S
$$
MNZ012-019>021-037-301900-
   Northeast Minnesota

CITY           SKY/WX    TMP DP  RH WIND       PRES   REMARKS
DULUTH         PTSUNNY   74  59  59 W10G17    30.03F
6HR MIN TEMP:  52; 6HR MAX TEMP:  75;

ELY            FAIR      72  59  64 W9G17     30.00F
HIBBING        FAIR      76  59  55 NW17      30.04F
EVELETH        FAIR      73  59  60 W13       30.03F
DULUTH HARBOR  FAIR      73  63  68 SW7       30.02F
TWO HARBORS    FAIR      72  61  68 W8        30.00F
SILVER BAY     FAIR      73  63  68 SW7       29.98F
GRAND MARAIS     N/A     52  48  86 W8        29.97F
G MARAIS ARPRT FAIR      68  54  60 W6        29.99F
$$
MNZ029>031-032-039>041-046>048-054>057-064-301900-
   West Central Minnesota

CITY           SKY/WX    TMP DP  RH WIND       PRES   REMARKS
FERGUS FALLS   FAIR      75  52  43 NW8       30.11F
WHEATON        FAIR      72  55  56 NW5       30.14F
MORRIS         FAIR      75  57  53 N6        30.12F
ALEXANDRIA     FAIR      74  55  51 NW10      30.13F
ELBOW LAKE     FAIR      73  57  56 NW8       30.12F
WADENA         FAIR      73  55  53 NW7       30.11F
GLENWOOD       FAIR      75  55  50 NW6       30.13F
APPLETON       FAIR      79  54  41 N7        30.12F
BENSON         FAIR      75  57  53 N7        30.12F
ORTONVILLE     FAIR      75  54  46 N6        30.13F
MADISON        FAIR      79  55  44 N8        30.13F
WILLMAR        FAIR      75  54  46 N7        30.13F
$$
MNZ033>034-036-042>043-049>051-058-059-301900-
   Central Minnesota

CITY           SKY/WX    TMP DP  RH WIND       PRES   REMARKS
ST CLOUD       FAIR      80  54  40 NW10      30.08F
6HR MIN TEMP:  60; 6HR MAX TEMP:  81;

SAUK CENTRE    FAIR      75  55  49 N8        30.11F
PAYNESVILLE    FAIR      76  52  43 W12       30.11F
AITKIN         FAIR      79  61  53 NW5       30.06F
PINE RIVER     FAIR      75  57  53 NW8       30.11F
BRAINERD       FAIR      76  57  51 NW8G20    30.08F
STAPLES        FAIR      77  52  41 NW10      30.10F
LONG PRAIRIE   FAIR      73  55  53 NW9       30.11F
LITTLE FALLS   FAIR      77  52  41 W12       30.09F
LITCHFIELD     FAIR      79  55  44 NW8       30.11F
BUFFALO        FAIR      77  55  46 NW8       30.10F
MAPLE LAKE     FAIR      78  58  51 NW10      30.10F
$$
MNZ037-044-045-052-053-301900-
   East Central Minnesota

CITY           SKY/WX    TMP DP  RH WIND       PRES   REMARKS
PRINCETON      FAIR      79  54  41 NW12      30.08F
MORA           FAIR      73  57  56 NW5       30.08F
CAMBRIDGE      FAIR      79  61  53 NW8       30.05F
RUSH CITY      FAIR      75  61  61 W5        30.06F
MOOSE LAKE     FAIR      75  59  57 NW7       30.03F
HINCKLEY       FAIR      75  63  64 NW6       30.06F
CLOQUET        FAIR      75  57  53 NW7       30.04F
MCGREGOR       FAIR      77  59  53 NW9       30.06F
$$
MNZ071>073-080-081-089-090-097-098-301900-
   Southwest Minnesota

CITY           SKY/WX    TMP DP  RH WIND       PRES   REMARKS
MONTEVIDEO     FAIR      77  57  50 NE6       30.14S
GRANITE FALLS  FAIR      75  56  51 NW8       30.15S
CANBY          FAIR      77  52  40 N6        30.15F
MARSHALL       FAIR      73  54  49 N8        30.14S
REDWOOD FALLS  FAIR      77  56  48 W8        30.12F
OLIVIA         FAIR      75  55  50 NW8       30.12F
PIPESTONE      FAIR      73  52  46 CALM      30.16F
WINDOM         FAIR      75  55  50 NW8       30.14F
WORTHINGTON    FAIR      72  52  49 N5        30.17F
JACKSON        FAIR      73  55  53 CALM      30.15F
TRACY          FAIR      75  56  51 N8        30.15F
SLAYTON        FAIR      73  51  45 CALM      30.16F
$$
MNZ065>067-074>077-082>085-091>093-301900-
   South Central Minnesota

CITY           SKY/WX    TMP DP  RH WIND       PRES   REMARKS
MANKATO        PTSUNNY   75  55  50 NW7       30.10F
NEW ULM        FAIR      75  57  53 NW8       30.11F
ST JAMES       FAIR      79  55  44 W8        30.13F
FAIRMONT       FAIR      77  54  44 NW7       30.13F
GLENCOE        FAIR      77  53  43 W10       30.09F
FARIBAULT      FAIR      81  54  39 W8        30.10F
OWATONNA       FAIR      77  57  50 NW10      30.10F
WASECA         PTSUNNY   73  55  53 NW7       30.12F
ALBERT LEA     FAIR      75  57  53 NW5       30.10F
$$
MNZ078>079-086>088-094>096-301900-
   Southeast Minnesota

CITY           SKY/WX    TMP DP  RH WIND       PRES   REMARKS
ROCHESTER      FAIR      75  59  57 N8        30.11F
6HR MIN TEMP:  57; 6HR MAX TEMP:  76;

RED WING       FAIR      77  59  53 CALM      30.06F
STANTON        FAIR      77  59  53 W7        30.07F
DODGE CENTER   FAIR      75  57  53 NW5       30.10F
WINONA         FAIR      73  55  53 NW5       30.08F
AUSTIN         FAIR      75  57  53 NW9       30.09F
PRESTON        FAIR      72  64  76 NW8       30.10F
$$
ABBREVIATIONS USED IN REMARKS
   TC - TEMPERATURES IN CELSIUS
  WCI - WIND CHILL INDEX
   HX - HEAT INDEX
  VSB - VISIBILITY
$$


USA.gov is the U.S. government's official web portal to all federal, state and local government web resources and services.